Voltar ao catálogo

STARLINK-31512

AtivoComunicaçõesVLEO
NORAD 59500·PAYLOAD·🇺🇸 United States

Lançado Apr 13, 2024 de Cape Canaveral Space Force Station

Loading…

Próximas Passagens (próximas 24 horas)

TLE

AtualizadoSource: CelesTrak SupGP

Época: Sep 15, 2026, 03:07 UTC

1 59500C 24071S   26258.13034722  .00034906  00000+0  12641-2 0  2583
2 59500  43.0022 309.6509 0001361 264.2826 132.8328 15.27565920    15

Acompanhe STARLINK-31512 em tempo real com AllMySat

Download on the App Store